Location: Glencliff
(36.1226°N, 86.7183°W)
Time: 19:21:52
(UTC+00:00)

SL-16 R/B - Pass Details

Date: 25 August 2019
Orbit: 985 x 1006 km, 99.4° (Epoch: 17 September)

Event Time Altitude Azimuth Distance (km) Brightness Sun altitude
Exits shadow 06:32:59 24° 47° (NE) 1,940 4.4 -41.9°
Drops below altitude 10° 06:36:39 10° 12° (NNE) 2,750 5.5 -41.7°
Sets 06:39:33 0° 0° (N) 3,704 6.3 -41.6°
